Weather History for Nashville, TN

Change the Weather History Date:

Tuesday, May 7, 2013

  Actual Average Record
Temperature  
Mean Temperature 60 °F 65 °F  
Max Temperature 73 °F 76 °F 89 °F (1952)
Min Temperature 46 °F 54 °F 37 °F (1944)
Degree Days  
Heating Degree Days 5 3  
Month to date heating degree days 45 22  
Since 1 July heating degree days 3505 3650  
Cooling Degree Days 0 3  
Month to date cooling degree days 6 16  
Year to date cooling degree days 58 61  
Growing Degree Days 10 (Base 50)    
Moisture  
Dew Point 49 °F    
Average Humidity 75    
Maximum Humidity 100    
Minimum Humidity 49    
Precipitation  
Precipitation 0.00 in 0.19 in 2.52 in (2003)
Month to date precipitation 1.49 1.32  
Year to date precipitation 23.16 17.12  
Snow  
Snow 0.00 in 0.00 in 0.00 in (2002)
Month to date snowfall 0.0 0.0  
Since 1 July snowfall 1.3 6.3  
Snow Depth 0.00 in    
Sea Level Pressure  
Sea Level Pressure 29.96 in    
Wind  
Wind Speed 4 mph (West)    
Max Wind Speed 13 mph    
Max Gust Speed 20 mph    
Visibility 4 miles    
Events Fog    
T = Trace of Precipitation, MM = Missing Value Source: NWS Daily Summary

Daily Weather History Graph

Daily Weather History Graph

Search for Another Location

Airport:

Trip Planner

Search our weather history database for the weather conditions in past years. The results will help you decide how hot, cold, wet, or windy it might be!

Date:

Astronomy

May. 07, 2013 Rise Set
Actual Time 5:47 AM CDT 7:39 PM CDT
Civil Twilight 5:19 AM CDT 8:07 PM CDT
Nautical Twilight 4:45 AM CDT 8:41 PM CDT
Astronomical Twilight 4:09 AM CDT 9:17 PM CDT
Moon 4:17 AM CDT (5/7) 5:41 PM CDT (5/7)
Length of Visible Light 14h 48m
Length of Day
13h 51m
Waning Crescent, 5% of the Moon is Illuminated
May 7
Waning Crescent
May 9
New
May 17
First Quarter
May 24
Full
May 31
Last Quarter

Hourly Weather History & Observations

Time (CDT) Temp. Windchill Dew Point Humidity Pressure Visibility Wind Dir Wind Speed Gust Speed Precip Events Conditions
12:00 AM 48.2 °F - 46.4 °F 93% 29.93 in 3.0 mi Calm Calm - N/A Fog Partly Cloudy
12:48 AM 46.4 °F - 46.4 °F 100% 29.92 in 0.5 mi Calm Calm - N/A Fog Partly Cloudy
12:53 AM 46.0 °F 43.9 °F 45.0 °F 96% 29.92 in 0.5 mi South 4.6 mph - N/A Fog Partly Cloudy
1:00 AM 46.4 °F 45.2 °F 44.6 °F 93% 29.92 in 0.2 mi South 3.5 mph - N/A Fog Mist
1:17 AM 48.2 °F - 46.4 °F 93% 29.92 in 0.2 mi Calm Calm - N/A Fog Mist
1:53 AM 46.9 °F - 46.0 °F 97% 29.92 in 0.2 mi Calm Calm - N/A Fog Fog
2:02 AM 48.2 °F - 46.4 °F 93% 29.92 in 0.2 mi Calm Calm - N/A Fog Fog
2:10 AM 48.2 °F - 46.4 °F 93% 29.92 in 0.2 mi Calm Calm - N/A Fog Fog
2:33 AM 48.2 °F - 46.4 °F 93% 29.93 in 0.2 mi Calm Calm - N/A Fog Fog
2:44 AM 48.2 °F - 46.4 °F 93% 29.93 in 0.2 mi Calm Calm - N/A Fog Fog
2:53 AM 48.2 °F - 46.4 °F 93% 29.93 in 0.2 mi NW 4.6 mph - N/A Fog Fog
3:10 AM 48.2 °F - 48.2 °F 100% 29.94 in 0.0 mi NW 3.5 mph - N/A Fog Fog
3:49 AM 48.2 °F - 46.4 °F 93% 29.95 in 0.0 mi Calm Calm - N/A Fog Fog
3:53 AM 48.0 °F - 46.9 °F 96% 29.94 in 0.1 mi Calm Calm - N/A Fog Fog
4:00 AM 48.2 °F - 46.4 °F 93% 29.95 in 0.2 mi Calm Calm - N/A Fog Fog
4:07 AM 48.2 °F - 46.4 °F 93% 29.95 in 0.2 mi Calm Calm - N/A Fog Fog
4:53 AM 48.0 °F - 46.0 °F 93% 29.95 in 0.2 mi South 3.5 mph - N/A Fog Fog
5:07 AM 46.4 °F - 46.4 °F 100% 29.95 in 0.2 mi Calm Calm - N/A Fog Fog
5:18 AM 46.4 °F - 46.4 °F 100% 29.95 in 0.5 mi Calm Calm - N/A Fog Fog
5:53 AM 46.9 °F - 46.9 °F 100% 29.95 in 0.5 mi Calm Calm - N/A Fog Fog
5:55 AM 46.4 °F - 46.4 °F 100% 29.95 in 0.2 mi Calm Calm - N/A Fog Fog
6:02 AM 46.4 °F - 46.4 °F 100% 29.96 in 0.5 mi Calm Calm - N/A Fog Fog
6:11 AM 46.4 °F - 46.4 °F 100% 29.96 in 0.2 mi Calm Calm - N/A Fog Fog
6:53 AM 48.9 °F - 48.0 °F 97% 29.96 in 0.5 mi South 3.5 mph - N/A Fog Fog
7:06 AM 48.2 °F - 48.2 °F 100% 29.96 in 0.2 mi SSW 4.6 mph - N/A Fog Fog
7:18 AM 50.0 °F - 48.2 °F 94% 29.97 in 0.2 mi Calm Calm - N/A Fog Fog
7:40 AM 50.0 °F - 48.2 °F 94% 29.97 in 0.5 mi SSE 3.5 mph - N/A Fog Fog
7:53 AM 51.1 °F - 50.0 °F 96% 29.98 in 0.5 mi SSE 3.5 mph - N/A Fog Fog
8:04 AM 53.6 °F - 51.8 °F 94% 29.99 in 0.5 mi East 3.5 mph - N/A Fog Fog
8:15 AM 53.6 °F - 51.8 °F 94% 29.99 in 2.0 mi Calm Calm - N/A Fog Patches of Fog
8:31 AM 55.4 °F - 51.8 °F 88% 30.00 in 7.0 mi NNE 3.5 mph - N/A Fog Patches of Fog
8:53 AM 55.9 °F - 51.1 °F 84% 29.99 in 10.0 mi Calm Calm - N/A   Scattered Clouds
9:53 AM 61.0 °F - 50.0 °F 67% 30.00 in 10.0 mi Calm Calm - N/A   Scattered Clouds
10:53 AM 64.0 °F - 50.0 °F 60% 29.99 in 10.0 mi WNW 5.8 mph - N/A   Scattered Clouds
11:53 AM 66.0 °F - 53.1 °F 63% 29.99 in 10.0 mi NNW 9.2 mph - N/A   Mostly Cloudy
12:24 PM 64.4 °F - 53.6 °F 68% 30.00 in 10.0 mi NW 8.1 mph - N/A   Overcast
12:53 PM 64.9 °F - 53.1 °F 65% 29.99 in 10.0 mi North 8.1 mph - N/A   Overcast
1:53 PM 68.0 °F - 54.0 °F 61% 29.99 in 10.0 mi NW 6.9 mph - N/A   Mostly Cloudy
2:53 PM 72.0 °F - 53.1 °F 51% 29.97 in 10.0 mi NNW 6.9 mph - N/A   Mostly Cloudy
3:53 PM 71.1 °F - 51.1 °F 49% 29.95 in 10.0 mi Calm Calm - N/A   Mostly Cloudy
4:53 PM 69.1 °F - 51.1 °F 53% 29.96 in 10.0 mi Calm Calm - N/A   Mostly Cloudy
5:53 PM 71.1 °F - 51.1 °F 49% 29.95 in 10.0 mi Variable 3.5 mph - N/A   Mostly Cloudy
6:53 PM 68.0 °F - 52.0 °F 56% 29.95 in 10.0 mi West 8.1 mph - N/A   Scattered Clouds
7:53 PM 64.9 °F - 53.1 °F 65% 29.97 in 10.0 mi WNW 5.8 mph - N/A   Scattered Clouds
8:53 PM 62.1 °F - 54.0 °F 75% 29.98 in 10.0 mi West 3.5 mph - N/A   Mostly Cloudy
9:53 PM 62.1 °F - 54.0 °F 75% 30.00 in 10.0 mi Calm Calm - N/A   Scattered Clouds
10:53 PM 59.0 °F - 54.0 °F 83% 29.99 in 10.0 mi WSW 3.5 mph - N/A   Scattered Clouds
11:53 PM 57.0 °F - 54.0 °F 89% 29.99 in 10.0 mi Calm Calm - N/A   Scattered Clouds